Location: Maiden_LMO
(35.5760°N, 81.2120°W)
Time: 04:41:12
(UTC-04:00)

Daily predictions for brighter satellites

Satellite Brightness Start Highest point End
(mag) Time Altitude Azimuth Time Altitude Azimuth Time Altitude Azimuth
Cosmos 2344 3.8 04:06:57 65° NNE 04:06:57 65° NNE 04:13:59 10° NNE
Cosmos 2227 Rocket 3.8 04:07:44 30° ENE 04:07:44 30° ENE 04:11:15 10° NE
CZ-2D R/B 4.3 04:06:32 10° NNE 04:07:50 18° NNE 04:07:50 18° NNE
FALCON 9 R/B 4.5 04:10:54 20° SE 04:11:54 21° ESE 04:20:09 10° E
Cosmos 2297 Rocket 3.7 04:15:57 30° E 04:15:57 30° E 04:20:26 10° NE
Resurs 1-4 Rocket 4.1 04:32:33 10° N 04:34:07 20° N 04:34:07 20° N
Cosmos 1605 Rocket 4.2 04:31:55 10° N 04:38:02 65° E 04:39:10 55° SE
Cosmos 2082 3.9 04:46:49 65° NE 04:46:49 65° NE 04:51:39 10° NNE
CZ-4C R/B 4.5 04:53:23 20° S 04:53:23 20° S 04:55:31 10° S
Cosmos 1025 Rocket 4.4 04:51:03 37° NE 04:51:03 37° NE 04:54:02 10° NNE
NOSS 3-2 (A) 4.1 04:43:28 10° NNW 04:51:05 74° ENE 04:59:12 10° SE
Lacrosse 5 rocket 4.3 04:53:31 11° N 04:53:31 11° N 04:53:46 10° N
CZ-4B R/B 4.1 04:49:33 10° NNE 04:53:24 46° E 04:53:24 46° E
Cosmos 923 Rocket 4.4 04:48:33 10° NNW 04:54:43 59° ESE 04:59:12 10° SSE
Cosmos 2333 Rocket 2.2 04:50:23 10° NNW 04:56:06 76° ENE 05:01:45 10° SSE
DELTA 2 R/B (1) 3.6 05:01:53 71° SE 05:01:53 71° SE 05:07:16 10° ENE
Okean O Rocket 2.7 04:57:40 10° NNE 05:00:23 37° NNE 05:00:23 37° NNE
Meteor 1-19 Rocket 4.1 05:04:58 62° S 05:05:57 84° E 05:11:35 10° N
USA 215 3.5 05:03:19 10° SSE 05:08:44 48° SSW 05:08:44 48° SSW
Delta 2 Rocket 4.2 05:13:34 43° E 05:13:34 43° E 05:16:04 10° E
Cosmos 1898 Rocket 4.5 05:09:18 19° SSE 05:12:52 46° ESE 05:17:56 10° NNE
CZ-2C R/B 3.6 05:17:20 84° NNW 05:17:20 84° NNW 05:21:49 10° NNW
Lacrosse 5 2.5 05:18:00 41° NNW 05:18:00 41° NNW 05:22:21 10° NNE
Cosmos 1726 Rocket 4.4 05:14:07 10° N 05:18:23 49° E 05:22:36 10° SSE
CZ-4B R/B 3.0 05:13:29 10° NNE 05:18:56 85° WNW 05:20:48 44° SSW
Cosmos 2237 Rocket 2.0 05:15:17 10° NNW 05:20:56 82° WSW 05:26:32 10° SSE
Cosmos 1666 3.7 05:17:22 10° N 05:21:06 47° E 05:24:48 10° SSE
Meteor 2-4 Rocket 3.8 05:17:26 22° S 05:21:16 83° E 05:27:12 10° N
Tiangong 1 3.4 05:23:36 20° NNE 05:23:36 20° NNE 05:25:01 10° NE
Meteor 1-23 Rocket 4.2 05:21:05 18° S 05:25:23 81° E 05:31:04 10° N
Cosmos 1892 Rocket 3.6 05:24:40 35° S 05:26:29 77° E 05:30:59 10° N
ATLAS 5 CENTAUR R/B 2.4 05:20:50 10° NNW 05:27:00 88° ENE 05:33:34 10° SSE
Cosmos 292 Rocket 4.4 05:23:46 10° N 05:28:33 56° ENE 05:33:19 10° SSE
NOSS 3-2 (C) 3.9 05:21:23 10° NNW 05:29:04 82° WSW 05:37:14 10° SSE
ADEOS Rocket 3.2 05:22:28 10° NNE 05:29:35 86° ESE 05:35:56 10° SSW
Hubble Space Telescope 2.9 05:32:28 15° S 05:32:28 15° S 05:33:51 10° SSE
Cosmos 1980 3.7 05:29:07 10° NNW 05:34:40 56° WSW 05:40:11 10° S
ADEOS II 2.4 05:29:53 10° NNE 05:35:07 66° ESE 05:40:20 10° S
PSLV R/B 3.5 05:32:37 10° NNE 05:36:58 81° ESE 05:39:59 19° S
SL-16 R/B 2.7 05:34:57 10° NNW 05:40:35 62° ENE 05:46:10 10° SSE
Meteor 2-9 Rocket 4.2 05:38:21 10° N 05:44:02 89° ENE 05:49:50 10° S
Cosmos 1000 Rocket 4.5 05:38:27 10° S 05:44:46 87° W 05:51:08 10° N
RESURS DK-1 3.4 05:46:00 28° NW 05:46:00 28° NW 05:49:01 10° N
Cosmos 2112 Rocket 4.0 05:41:58 10° NNW 05:47:09 56° WSW 05:52:15 10° S
Meteor PRIRODA 3.9 05:44:24 10° NNE 05:48:07 69° E 05:51:48 10° S
OAO 2 Rocket 4.3 05:45:42 25° SSW 05:48:12 42° SSE 05:53:12 10° E
NOSS 3-4 (A) 4.5 05:48:16 26° WNW 05:49:55 29° NW 05:55:32 10° NNE
NOSS 3-4 (C) 4.4 05:48:21 26° WNW 05:50:02 29° NW 05:55:39 10° NNE
Cosmos 2227 Rocket 3.1 05:49:36 27° WNW 05:50:10 28° WNW 05:54:59 10° N
Cosmos 2228 3.6 05:45:49 10° N 05:50:11 61° E 05:54:29 10° SSE
OPS 6432 4.4 05:49:35 34° SSW 05:50:59 76° ESE 05:54:08 10° NE
Cosmos 1346 Rocket 3.1 05:51:14 42° W 05:51:20 43° WNW 05:55:09 10° N
Cosmos 2016 Rocket 4.3 05:45:24 10° N 05:51:44 71° E 05:57:57 10° SSE
Cosmos 1680 Rocket 3.8 05:46:46 10° NNW 05:51:44 42° WSW 05:56:38 10° S
Cosmos 2173 Rocket 3.8 05:51:19 10° N 05:57:24 75° W 06:03:31 10° S
Cosmos 2219 Rocket 4.1 06:02:32 12° SW 06:02:32 12° SW 06:03:09 10° SSW
Cosmos 2297 Rocket 3.0 05:57:49 27° W 05:59:28 32° WNW 06:04:30 10° N
OTV 4 0.7 06:01:45 42° SSW 06:01:45 42° SSW 06:04:21 10° SE
Okean-O 2.6 06:00:59 10° N 06:05:21 60° WNW 06:09:42 10° SSW
Cosmos 2123 Rocket 4.2 05:59:28 10° S 06:05:37 75° E 06:11:47 10° N
Cosmos 1459 Rocket 4.0 05:59:27 10° NNW 06:05:44 62° W 06:11:55 10° S
Cosmos 2058 Rocket 3.1 06:05:01 10° NNW 06:09:15 53° W 06:13:28 10° S
Cosmos 2298 Rocket 4.3 06:05:20 16° SW 06:09:23 46° WNW 06:14:30 10° N
NOSS 8 (A) 4.4 06:09:21 25° SW 06:11:04 58° WNW 06:14:25 10° NNE
CZ-4B R/B 3.7 06:12:09 10° N 06:16:04 88° W 06:19:48 10° SSW
Thor Agena Rocket 4.0 06:12:58 10° SSW 06:17:53 40° W 06:22:51 10° NNW
Cosmos 724 4.4 06:11:50 10° NNW 06:18:03 74° WSW 06:24:13 10° SSE
COSMO-SKYMED 1 4.1 06:15:34 10° SE 06:19:37 40° ENE 06:23:41 10° N
Aureole 2 Rocket 2.1 06:16:47 10° NNW 06:20:10 79° WSW 06:23:15 10° SSE
Cosmos 2150 Rocket 4.5 06:19:11 10° SW 06:23:57 38° WNW 06:28:45 10° N
Cosmos 1603 4.5 06:22:15 10° NNW 06:27:53 56° ENE 06:33:26 10° SE
Cosmos 990 Rocket 4.0 06:25:16 10° SSW 06:30:27 61° WNW 06:35:40 10° N
Meteor 1-31 Rocket 3.1 06:29:54 10° N 06:33:39 46° WNW 06:37:25 10° SSW
Ariane Rocket 3.4 06:30:10 10° NNE 06:35:16 70° ESE 06:40:20 10° S
Intercosmos 25 Rocket 4.3 06:32:46 10° N 06:36:28 62° E 06:42:03 10° SSE
Cosmos 2263 Rocket 4.2 06:32:28 10° SSE 06:37:19 31° ESE 06:42:09 10° NE
Cosmos 1626 Rocket 3.8 06:34:37 10° SSW 06:38:49 44° W 06:43:01 10° N
Cosmos 2333 Rocket 3.8 06:37:39 10° WNW 06:39:34 12° W 06:41:30 10° WSW
Cosmos 2098 Rocket 3.5 06:35:52 10° NNW 06:39:42 41° W 06:44:32 10° SSW
Genesis I 3.2 06:37:24 10° SW 06:41:22 68° WNW 06:45:22 10° NNE
Cosmos 1174 4.2 06:42:16 10° NNW 06:45:16 52° ENE 06:48:38 10° SE
MOS 1 Rocket 3.9 06:42:33 10° N 06:47:00 38° WNW 06:51:41 10° SW
DELTA 2 R/B (1) 3.9 06:42:49 10° W 06:48:19 60° N 06:53:51 10° ENE
COBE Rocket 4.5 06:47:05 10° N 06:51:20 33° WNW 06:55:30 10° SW
Cosmos 1515 4.5 06:48:44 10° SW 06:52:10 31° W 06:55:36 10° NNW
Delta 2 Rocket 3.2 06:51:11 10° W 06:54:50 55° SSW 06:58:11 10° ESE
Cosmos 1953 Rocket 4.5 06:51:28 10° S 06:55:48 57° E 07:00:13 10° NNE
